This demonstration page uses our WeatherBlox Daily Observations layout. Learn more.

Left ArrowRight Arrow

41.86663, -103.66717

Hourly Observations for January 17, 2016

Temp ( °F °C ) Dew Point ( °F °C ) Humidity (%) Winds ( mph kmh ) Pressure ( in mb ) Visibility ( mi km ) Precip ( " mm )
12:05 am 00:05 Cloudy 15 -9.4 10 -12.2 80 80 E 6 9 30.27 1025 10 16 N/A
12:46 am 00:46 Cloudy with Light Snow 16 -9 10 -12 79 79 E 5 7 30.27 1025 3 4 N/A
12:53 am 00:53 Cloudy with Light Snow 15 -9.4 10 -12.2 80 80 E 5 7 30.09 1019 3 4 N/A
1:53 am 01:53 Cloudy with Light Snow 16 -8.9 11 -11.7 80 80 N N/A 30.09 1019 3 5 0.01 0.25
2:53 am 02:53 Cloudy with Haze 16 -8.9 11 -11.7 80 80 NE 3 6 30.09 1019 5 8 N/A
3:53 am 03:53 Partly Cloudy 15 -9.4 11 -11.7 84 84 E 3 6 30.10 1019 10 16 N/A
4:42 am 04:42 Cloudy 16 -9 10 -12 79 79 E 3 6 30.27 1025 10 16 N/A
4:53 am 04:53 Cloudy 15 -9.4 11 -11.7 84 84 E 3 6 30.13 1020 10 16 N/A
5:30 am 05:30 Partly Cloudy 16 -9 10 -12 79 79 E 3 6 30.27 1025 10 16 N/A
5:53 am 05:53 Mostly Clear 14 -10 10 -12.2 84 84 ESE 5 7 30.14 1021 10 16 N/A
6:53 am 06:53 Clear 15 -9.4 11 -11.7 84 84 E 5 7 30.16 1021 10 16 N/A
7:53 am 07:53 Mostly Cloudy 14 -10 11 -11.7 88 88 ESE 7 11 30.20 1023 10 16 N/A
8:53 am 08:53 Mostly Cloudy 16 -8.9 11 -11.7 80 80 E 7 11 30.24 1024 10 16 N/A
9:53 am 09:53 Mostly Cloudy 17 -8.3 12 -11.1 80 80 E 7 11 30.25 1024 9 14 N/A
10:53 am 10:53 Mostly Sunny 18 -7.8 13 -10.6 81 81 ESE 8 13 30.25 1024 10 16 N/A
11:53 am 11:53 Cloudy 19 -7.2 14 -10 81 81 ESE 7 11 30.23 1024 7 11 N/A
12:33 pm 12:33 Mostly Cloudy with Light Snow 20 -6.7 14 -10 78 78 E 7 11 30.30 1026 5 8 N/A
12:43 pm 12:43 Cloudy 20 -6.7 14 -10 78 78 E 7 11 30.30 1026 9 14 N/A
12:53 pm 12:53 Mostly Cloudy 20 -6.7 14 -10 78 78 ESE 7 11 30.21 1023 10 16 N/A
1:53 pm 13:53 Cloudy 21 -6.1 14 -10 74 74 ESE 6 9 30.19 1022 10 16 N/A
2:53 pm 14:53 Cloudy 21 -6.1 15 -9.4 78 78 SSE 7 11 30.19 1023 10 16 N/A
3:53 pm 15:53 Cloudy 21 -6.1 15 -9.4 78 78 E 7 11 30.21 1023 10 16 N/A
4:53 pm 16:53 Cloudy 21 -6.1 15 -9.4 78 78 ESE 9 15 30.23 1024 10 16 N/A
5:53 pm 17:53 Mostly Cloudy 20 -6.7 15 -9.4 81 81 ESE 7 11 30.23 1024 10 16 N/A
6:53 pm 18:53 Mostly Clear 17 -8.3 13 -10.6 84 84 E 6 9 30.23 1024 10 16 N/A
7:53 pm 19:53 Cloudy 19 -7.2 15 -9.4 84 84 N N/A 30.24 1024 10 16 N/A
8:53 pm 20:53 Cloudy 19 -7.2 15 -9.4 84 84 ESE 3 6 30.24 1024 10 16 N/A
9:53 pm 21:53 Cloudy 19 -7.2 15 -9.4 84 84 SE 6 9 30.24 1024 10 16 N/A
10:53 pm 22:53 Mostly Cloudy 18 -7.8 14 -10 84 84 E 5 7 30.22 1024 10 16 N/A
11:53 pm 23:53 Clear 14 -10 11 -11.7 88 88 E 3 6 30.22 1023 8 13 N/A

Powered by AerisWeather